Weather History for VINA DEL MAR, CL

Change the Weather History Date:

Sunday, February 2, 2014

  Actual Average Record
Temperature  
Mean Temperature 66 °F -  
Max Temperature 77 °F - - ()
Min Temperature 55 °F - - ()
Cooling Degree Days 1    
Growing Degree Days 16 (Base 50)    
Moisture  
Dew Point 43 °F    
Average Humidity 45    
Maximum Humidity 68    
Minimum Humidity 34    
Precipitation  
Precipitation 0.00 in - - ()
Sea Level Pressure  
Sea Level Pressure 29.93 in    
Wind  
Wind Speed 5 mph ()    
Max Wind Speed 15 mph    
Max Gust Speed -    
T = Trace of Precipitation, MM = Missing Value Source: Averaged Metar Reports

Daily Weather History Graph

Daily Weather History Graph

Search for Another Location

Airport:

Trip Planner

Search our weather history database for the weather conditions in past years. The results will help you decide how hot, cold, wet, or windy it might be!

Date:

Astronomy

Feb. 02, 2014 Rise Set
Actual Time 7:10 AM CLST 8:48 PM CLST
Civil Twilight 6:43 AM CLST 9:15 PM CLST
Nautical Twilight 6:11 AM CLST 9:47 PM CLST
Astronomical Twilight 5:37 AM CLST 10:20 PM CLST
Moon 10:14 AM CLST (2/2) 10:35 PM CLST (2/2)
Length of Visible Light 14h 31m
Length of Day
13h 38m
Waxing Crescent, 11% of the Moon is Illuminated
Feb 2
Waxing Crescent
Feb 6
First Quarter
Feb 14
Full
Feb 22
Last Quarter
Mar 1
New

Hourly Weather History & Observations

Time (CLST) Temp. Dew Point Humidity Pressure Visibility Wind Dir Wind Speed Gust Speed Precip Events Conditions
12:00 AM 62.6 °F 35.6 °F 37% 29.92 in - Calm Calm - N/A   Clear
1:00 AM 62.6 °F 37.4 °F 39% 29.92 in - SSW 4.6 mph - N/A   Clear
2:00 AM 62.6 °F 37.4 °F 39% 29.92 in - NNE 3.5 mph - N/A   Clear
3:00 AM 60.8 °F 35.6 °F 39% 29.89 in - Calm Calm - N/A   Clear
4:00 AM 59.0 °F 35.6 °F 42% 29.89 in - Calm Calm - N/A   Clear
5:00 AM 57.2 °F 39.2 °F 51% 29.89 in - Calm Calm - N/A   Clear
6:00 AM 57.2 °F 42.8 °F 59% 29.89 in - SSE 3.5 mph - N/A   Clear
7:00 AM 57.2 °F 41.0 °F 55% 29.92 in - ENE 3.5 mph - N/A   Clear
8:00 AM 55.4 °F 42.8 °F 63% 29.95 in - Calm Calm - N/A   Clear
9:00 AM 60.8 °F 42.8 °F 52% 29.95 in - North 6.9 mph - N/A   Clear
10:00 AM 62.6 °F 44.6 °F 52% 29.98 in - NW 3.5 mph - N/A   Clear
11:00 AM 68.0 °F 46.4 °F 46% 29.95 in - NNW 10.4 mph - N/A   Clear
12:00 PM 68.0 °F 44.6 °F 43% 29.98 in - NW 11.5 mph - N/A   Clear
1:00 PM 71.6 °F 46.4 °F 41% 29.95 in - NNW 12.7 mph - N/A   Clear
2:00 PM 73.4 °F 46.4 °F 38% 29.95 in - NW 10.4 mph - N/A   Clear
3:00 PM 75.2 °F 44.6 °F 34% 29.95 in - West 11.5 mph - N/A   Clear
4:00 PM 77.0 °F 48.2 °F 36% 29.95 in - WSW 13.8 mph - N/A   Clear
5:00 PM 77.0 °F 48.2 °F 36% 29.92 in - WSW 15.0 mph - N/A   Clear
6:00 PM 75.2 °F 46.4 °F 36% 29.92 in - West 12.7 mph - N/A   Clear
7:00 PM 75.2 °F 44.6 °F 34% 29.92 in - South 11.5 mph - N/A   Clear
8:00 PM 73.4 °F 44.6 °F 36% 29.92 in - SSW 5.8 mph - N/A   Clear
9:00 PM 68.0 °F 46.4 °F 46% 29.92 in - SSW 12.7 mph - N/A   Clear
10:00 PM 62.6 °F 48.2 °F 59% 29.95 in - SSE 6.9 mph - N/A   Clear
11:00 PM 60.8 °F 50.0 °F 68% 29.95 in - SSE 5.8 mph - N/A   Clear